FW5819 Weather Reports


time (UTC)temp
F
wind
direction
speed
knots
gust
knots
rain 1hr
in
rain 24hr
in
rain mn
in
humidity
%
barometer
mb
20260510203035 59 351 3.5 7.0 0.00 0.26 0.00 46 1018.8
20260510201536 58 17 1.7 7.0 0.00 0.26 0.00 46 1018.8
20260510200035 58 48 3.5 8.7 0.00 0.26 0.00 47 1018.9
20260510194534 57 316 3.5 7.8 0.00 0.26 0.00 53 1019.1
20260510193031 58 16 2.6 7.8 0.00 0.26 0.00 48 1018.9
20260510191534 58 12 1.7 7.8 0.00 0.26 0.00 50 1019.1
20260510190037 58 46 1.7 7.0 0.00 0.26 0.00 51 1019.1
20260510184535 57 326 3.5 7.8 0.00 0.26 0.00 47 1019.0
20260510183036 57 309 2.6 7.8 0.00 0.26 0.00 47 1018.9
20260510181532 57 40 2.6 7.8 0.00 0.26 0.00 53 1018.6
20260510180031 57 339 2.6 8.7 0.00 0.26 0.00 52 1018.6
20260510174532 56 15 3.5 7.8 0.00 0.26 0.00 53 1018.4
20260510173038 56 40 2.6 7.8 0.00 0.26 0.00 53 1018.5
20260510171546 56 17 3.5 6.1 0.00 0.26 0.00 57 1018.5
20260510170039 56 342 2.6 7.8 0.00 0.26 0.00 57 1018.4
20260510164534 56 88 2.6 9.6 0.00 0.26 0.00 58 1018.5
20260510163032 56 11 1.7 7.8 0.00 0.26 0.00 54 1018.4
20260510161531 55 350 2.6 7.0 0.00 0.26 0.00 60 1018.3
20260510160033 55 336 3.5 7.0 0.00 0.26 0.00 56 1018.1
20260510154536 55 22 3.5 7.8 0.00 0.26 0.00 59 1017.8
20260510153042 55 318 2.6 7.8 0.00 0.26 0.00 57 1017.8
20260510151536 55 0 0.0 4.3 0.00 0.26 0.00 56 1017.8
20260510150034 54 327 2.6 7.8 0.00 0.26 0.00 56 1017.4
20260510144535 54 24 3.5 8.7 0.00 0.26 0.00 57 1017.4
20260510143037 53 106 2.6 7.8 0.00 0.26 0.00 55 1017.4
20260510141540 53 331 3.5 7.0 0.00 0.26 0.00 56 1017.3
20260510140035 53 37 3.5 7.8 0.00 0.26 0.00 53 1017.5
20260510134532 53 149 0.9 4.3 0.00 0.26 0.00 58 1017.3
20260510133033 53 342 0.9 7.0 0.00 0.26 0.00 60 1017.1
20260510131531 51 333 2.6 10.4 0.00 0.26 0.00 64 1016.9
20260510130047 51 9 2.6 8.7 0.00 0.26 0.00 64 1016.6
20260510124545 51 327 2.6 8.7 0.00 0.26 0.00 66 1016.4
20260510123034 50 11 1.7 5.2 0.00 0.26 0.00 67 1016.1
20260510121542 50 32 1.7 5.2 0.00 0.26 0.00 66 1016.0
20260510120034 49 317 2.6 7.8 0.00 0.26 0.00 66 1015.8
20260510114531 48 344 1.7 4.3 0.00 0.26 0.00 72 1015.6
20260510113039 48 81 1.7 4.3 0.00 0.26 0.00 74 1015.0
20260510111535 48 345 1.7 5.2 0.00 0.26 0.00 77 1014.9
20260510110041 48 41 1.7 5.2 0.00 0.26 0.00 77 1014.5
20260510104534 47 17 1.7 2.6 0.00 0.26 0.00 77 1014.3
20260510103034 47 350 1.7 3.5 0.00 0.26 0.00 78 1013.8
20260510101539 47 17 0.0 2.6 0.00 0.26 0.00 78 1013.6
20260510100035 47 342 0.9 3.5 0.00 0.26 0.00 79 1013.4
20260510094536 48 0 0.0 2.6 0.00 0.26 0.00 81 1013.2
20260510093035 47 24 0.9 4.3 0.00 0.26 0.00 81 1013.0
20260510091556 46 32 0.9 3.5 0.00 0.26 0.00 84 1012.9
20260510090032 46 0 0.0 0.0 0.00 0.26 0.00 85 1012.6
20260510084536 46 0 0.0 0.0 0.00 0.26 0.00 84 1012.3
20260510083045 46 0 0.0 0.9 0.00 0.26 0.00 83 1012.2
20260510081536 47 0 0.0 0.0 0.00 0.26 0.00 83 1011.8
20260510080035 47 0 0.0 0.9 0.00 0.26 0.00 81 1011.7
20260510074535 47 0 0.0 0.0 0.00 0.26 0.00 78 1011.4
20260510073033 48 0 0.0 0.9 0.00 0.26 0.00 76 1011.0
20260510071533 49 0 0.0 0.9 0.00 0.26 0.00 75 1010.8
20260510070036 50 144 0.0 3.5 0.00 0.26 0.00 74 1010.7
20260510064539 51 0 0.0 5.2 0.00 0.26 0.00 72 1010.6
20260510063035 51 5 1.7 7.8 0.00 0.26 0.00 72 1010.7
20260510061536 51 325 1.7 7.8 0.00 0.26 0.00 72 1010.6
20260510060036 52 335 0.9 4.3 0.00 0.26 0.00 73 1010.4
20260510054537 52 38 2.6 7.0 0.00 0.26 0.00 73 1010.1
20260510053035 53 331 3.5 11.3 0.00 0.26 0.00 74 1010.0
20260510051536 56 65 5.2 13.0 0.00 0.26 0.00 80 1009.2
20260510050033 58 294 0.9 3.5 0.00 0.26 0.00 82 1008.6
20260510044535 57 259 0.9 5.2 0.00 0.26 0.00 84 1008.5
20260510043032 58 0 0.0 2.6 0.00 0.26 0.00 83 1007.8
20260510041536 57 250 2.6 7.0 0.00 0.26 0.00 84 1007.8
20260510040038 57 232 1.7 4.3 0.00 0.26 0.00 84 1007.3
20260510034533 57 275 0.9 6.1 0.00 0.28 0.26 83 1007.1
20260510033043 57 234 0.9 6.1 0.00 0.28 0.26 84 1006.9
20260510031540 57 265 0.9 5.2 0.00 0.28 0.26 88 1007.0
20260510030032 56 237 1.7 6.1 0.00 0.28 0.26 89 1007.0
20260510024534 56 206 0.9 7.0 0.00 0.28 0.26 90 1007.1
20260510023036 56 219 1.7 4.3 0.00 0.28 0.26 91 1006.9
20260510021535 56 242 0.9 5.2 0.00 0.28 0.26 92 1006.8
20260510020034 56 215 2.6 8.7 0.00 0.28 0.26 93 1007.0
20260510014532 55 234 0.0 3.5 0.00 0.28 0.26 94 1006.5
20260510013034 55 0 0.0 3.5 0.00 0.28 0.26 93 1006.1
20260510011534 55 225 0.0 2.6 0.00 0.28 0.26 93 1006.1
20260510010035 55 146 0.0 3.5 0.00 0.28 0.26 93 1006.0
20260510004535 55 151 0.0 2.6 0.00 0.28 0.26 93 1005.9
20260510003035 56 284 0.9 5.2 0.00 0.28 0.26 92 1006.0
20260510001532 56 287 1.7 7.8 0.00 0.28 0.26 92 1005.9
20260510000036 56 254 0.9 7.0 0.00 0.28 0.26 92 1005.9
20260509234541 56 279 0.9 6.1 0.02 0.29 0.26 93 1005.9
20260509233038 56 34 0.9 9.6 0.04 0.29 0.26 93 1005.6
20260509231534 55 213 2.6 12.2 0.26 0.29 0.26 92 1005.6
20260509230037 56 265 2.6 10.4 0.26 0.29 0.26 91 1005.5
20260509224545 56 250 2.6 9.6 0.24 0.32 0.24 90 1006.2
20260509223031 57 248 1.7 17.4 0.22 0.30 0.22 85 1005.6
20260509221533 67 292 9.6 20.9 0.00 0.08 0.00 67 1005.3
20260509220034 69 282 4.3 11.3 0.00 0.08 0.00 60 1003.3
20260509214539 70 312 7.0 15.6 0.00 0.09 0.00 58 1003.2
20260509213035 70 225 5.2 19.1 0.00 0.09 0.00 59 1003.1
20260509211534 71 228 4.3 19.1 0.00 0.09 0.00 57 1003.1
20260509210033 72 223 5.2 16.5 0.00 0.09 0.00 56 1003.1
20260509204537 72 296 6.1 14.8 0.00 0.09 0.00 58 1003.4